Location: Bathurst
(33.4193°S, 149.5775°E)
Time: 23:08:33
(UTC+10:00)

Vanguard 1 Rocket - All Passes

Search period start: 14 June 2021 00:00
Search period end: 24 June 2021 00:00
Orbit: 651 x 4225 km, 34.3° (Epoch: 13 June)

Date Brightness Start Highest point End Pass type
(mag) Time Alt. Az. Time Alt. Az. Time Alt. Az.
14 Jun - 06:20:14 10° N 06:33:55 19° NE 06:44:17 10° ENE visible
14 Jun - 08:45:05 10° NW 09:03:49 46° NNE 09:14:03 10° E daylight
14 Jun - 11:16:57 10° WNW 11:31:37 82° NNE 11:38:53 10° E daylight
14 Jun - 13:48:59 10° W 13:57:50 87° S 14:02:57 10° E daylight
14 Jun - 16:17:41 10° W 16:22:29 33° NNW 16:26:27 10° NE daylight
15 Jun - 05:15:20 10° NNE 05:19:47 11° NE 05:23:56 10° NE visible
15 Jun - 07:31:24 10° NNW 07:50:32 36° NNE 08:02:18 10° E daylight
15 Jun - 10:01:37 10° WNW 10:19:26 69° NNE 10:28:17 10° E daylight
15 Jun - 12:34:45 10° W 12:46:27 84° S 12:52:30 10° E daylight
15 Jun - 15:05:07 10° W 15:11:53 61° NNW 15:16:23 10° ENE daylight
16 Jun - 06:19:11 10° N 06:36:47 26° NE 06:49:16 10° E visible
16 Jun - 08:46:29 10° NW 09:06:41 56° NNE 09:17:21 10° E daylight
16 Jun - 11:19:33 10° WNW 11:34:39 89° NNE 11:42:03 10° E daylight
16 Jun - 13:51:52 10° W 14:00:56 86° NNW 14:06:06 10° ENE daylight
16 Jun - 16:21:04 10° W 16:25:18 23° NW 16:28:50 10° NNE daylight
17 Jun - 05:09:38 10° N 05:22:41 17° NE 05:33:30 10° ENE visible
17 Jun - 07:32:08 10° NNW 07:53:19 44° NNE 08:05:51 10° E daylight
17 Jun - 10:03:49 10° WNW 10:22:21 78° NNE 10:31:26 10° E daylight
17 Jun - 12:37:34 10° W 12:49:33 85° S 12:55:42 10° E daylight
17 Jun - 15:08:07 10° W 15:14:48 46° NNW 15:19:16 10° NE daylight
18 Jun - 06:19:04 10° NNW 06:39:29 33° NE 06:53:23 10° E visible
18 Jun - 08:48:12 10° NW 09:09:30 66° NNE 09:20:34 10° E daylight
18 Jun - 11:22:14 10° W 11:37:40 87° S 11:45:13 10° E daylight
18 Jun - 13:54:43 10° W 14:03:58 74° NNW 14:09:12 10° ENE daylight
18 Jun - 16:24:53 10° WNW 16:28:00 15° NW 16:30:42 10° N daylight
19 Jun - 05:07:56 10° N 05:25:22 23° NE 05:39:09 10° E visible
19 Jun - 07:33:17 10° NW 07:56:03 53° NNE 08:09:12 10° E daylight
19 Jun - 10:06:13 10° WNW 10:25:17 85° NNE 10:34:35 10° E daylight
19 Jun - 12:40:23 10° W 12:52:38 89° S 12:58:53 10° E daylight
19 Jun - 15:11:13 10° W 15:17:37 34° NW 15:21:58 10° NNE daylight
20 Jun - 04:00:52 10° NNE 04:11:08 14° NE 04:20:32 10° ENE visible
20 Jun - 06:19:35 10° NNW 06:42:05 42° NNE 06:57:03 10° E visible
20 Jun - 08:50:10 10° WNW 09:12:18 74° NNE 09:23:41 10° ESE daylight
20 Jun - 11:24:57 10° W 11:40:43 85° S 11:48:24 10° E daylight
20 Jun - 13:57:35 10° WSW 14:06:55 61° NNW 14:12:13 10° NE daylight
21 Jun - 05:07:31 10° NNW 05:27:52 30° NE 05:43:36 10° E visible
21 Jun - 07:34:47 10° NW 07:58:42 62° NNE 08:12:24 10° ESE daylight
21 Jun - 10:08:45 10° WNW 10:28:14 90° S 10:37:43 10° E daylight
21 Jun - 12:43:09 10° W 12:55:40 84° NNW 13:02:02 10° ENE daylight
21 Jun - 15:14:28 10° W 15:20:16 25° NW 15:24:22 10° NNE daylight
22 Jun - 03:57:57 10° N 04:13:39 20° NE 04:27:35 10° E visible
22 Jun - 06:20:34 10° NW 06:44:36 50° NNE 07:00:26 10° E visible
22 Jun - 08:52:23 10° WNW 09:15:06 82° NNE 09:26:48 10° E daylight
22 Jun - 11:27:41 10° W 11:43:46 87° S 11:51:34 10° E daylight
22 Jun - 14:00:26 10° WSW 14:09:44 49° NNW 14:15:05 10° NE daylight
23 Jun - 05:07:50 10° NNW 05:30:15 38° NE 05:47:27 10° E visible
23 Jun - 07:36:35 10° NW 08:01:21 71° NNE 08:15:30 10° ESE daylight
23 Jun - 10:11:22 10° W 10:31:12 87° S 10:40:52 10° E daylight
23 Jun - 12:45:53 10° WSW 12:58:38 74° NNW 13:05:06 10° ENE daylight
23 Jun - 15:18:05 10° W 15:22:47 18° NW 15:26:22 10° N daylight
